Preview of NWS' New Version of Forecast
This preview is not operational and should not be used for support decisions.
Latest weather observations around

Buffalo, Greater Buffalo International Airport (KBUF)

Using International System of Units (Switch to English Units)
Date/ Time (EDT) Wind (kph) Vis. (km) Weather Sky Cond. Temp (°C) Rel. Humidity Wind Chill (°C) Heat Index (°C) Pressure Precip. (cm)
Air Dwpt 6 hour Altimeter (hPa) Sea level (hPa) 1 hr 3 hr 6 hr
Max Min
Jun 25 20:54 SW 15 16.09 Mostly Clear FEW075 20 14     68%     1012.9 1012.8      
Jun 25 19:54 SW 17 16.09 Mostly Clear FEW035 FEW075 22 14     61%   22 1012.9 1012.5     0
Jun 25 18:54   16.09 Mostly Clear FEW035 FEW075 22 14     61%   22 1012.5 1012.2      
Jun 25 17:54   16.09 Mostly Clear FEW035 FEW075 22 14     61%   22 1012.2 1011.9      
Jun 25 16:54 WSW 33 16.09 Mostly Clear and Windy FEW035 FEW075 FEW290 22 16     68%   22 1012.5 1012.2   0  
Jun 25 15:54 SW 35 16.09 Partly Cloudy and Windy FEW026 FEW055 SCT075 SCT290 21 15     68%     1012.5 1012.2      
Jun 25 14:54 SW 33 16.09 Mostly Clear and Windy FEW024 FEW065 FEW290 22 16     66%   22 1012.2 1011.7      
Jun 25 13:54   16.09 Mostly Clear FEW270 22 16     68%   22 1011.5 1011.1      
Jun 25 12:54   16.09 Mostly Clear FEW016 FEW270 22 16     70%   22 1011.2 1010.9      
Jun 25 11:54   16.09 Partly Cloudy SCT014 SCT270 22 17     73%   22 1010.5 1010.1      
Jun 25 10:54   16.09 Partly Cloudy SCT013 SCT023 SCT270 21 17     76%     1009.8 1009.4      
Jun 25 10:51   16.09 Partly Cloudy SCT013 SCT023 SCT270 21 17     78%     1009.8        
Jun 25 09:54 SW 26 16.09 Mostly Cloudy SCT012 BKN020 20 17     81%     1009.2 1008.8      
Jun 25 08:54   16.09 Cloudy BKN011 OVC023 20 17     81%     1008.8 1008.4      
Jun 25 07:54 SW 26 16.09 Cloudy OVC010 20 17     84%     1008.1 1007.7     1
Jun 25 06:54 WSW 28 16.09 Cloudy BKN010 OVC014 20 18     87%     1007.5 1007      
Jun 25 05:54 SW 17 16.09 Cloudy BKN005 BKN025 OVC030 19 18     93%     1007.1 1006.6      
Jun 25 04:54 SW 17 9.66 Fog/Mist OVC003 19 18     93%     1006.4 1005.8 0 1  
Jun 25 04:46 WSW 21 14.48 Cloudy OVC004 19 18     93%     1006.1   0    
Jun 25 03:54 WSW 18 16.09 Light Rain BKN005 OVC030 20 18     90%     1005.4 1004.9 0    
Jun 25 03:28 SW 22 9.66 Light Rain and Fog/Mist BKN005 BKN029 OVC036 20 18     90%     1005.1   0    
Jun 25 03:09 SW 22 8.05 Light Rain and Fog/Mist SCT006 SCT013 OVC030 20 19     93%     1005.1   0    
Jun 25 02:54 SW 24 4.83 Heavy Rain and Fog/Mist BKN005 OVC014 21 19     90%     1005.1 1004.6 1    
Jun 25 02:26 SW 22 4.02 Heavy Rain and Fog/Mist OVC006 21 20     93%     1004.8   0    
Jun 25 02:14 SW 18 8.05 Light Rain and Fog/Mist BKN007 BKN022 OVC039 21 20     93%     1004.8   0    
Jun 25 02:05 SW 15 12.87 Light Rain FEW008 BKN023 OVC042 21 20     93%     1004.8   0    
Jun 25 01:54 SSW 21 14.48 Light Rain FEW021 BKN046 OVC060 21 19     90%     1004.8 1004.2 0   0
Jun 25 00:54 SSW 18 16.09 Light Rain FEW041 SCT060 OVC110 22 21     91%   23 1004.8 1004.2 0    
Jun 24 23:54 Calm 16.09 Light Rain FEW043 SCT065 BKN130 OVC230 22 21     91%   23 1004.4 1004.1 0    
Jun 24 23:15 NW 8 16.09 Light Rain FEW025 BKN050 OVC070 23 20     84%   23 1004.8   0    
Jun 24 22:54 W 17 12.87 Thunderstorms and Rain FEW023 BKN045 OVC070 23 20     82%   24 1005.1 1004.6 0 0  
Jun 24 22:44 NW 11 9.66 Thunderstorms and Rain FEW020 BKN045 OVC075 24 19     76%   24 1005.1   0    
Jun 24 21:54 Calm 16.09 Mostly Cloudy FEW070 BKN085 BKN140 BKN280 26 18     62%   26 1005.1 1004.5      
Jun 24 20:54 SSW 5 16.09 Clear   26 18     62%   26 1005.1 1004.6      
Jun 24 19:54 SW 11 16.09 Partly Cloudy FEW060 FEW075 SCT200 SCT280 27 18     58%   28 1005.1 1004.8      
Jun 24 18:54 WSW 5 16.09 Mostly Cloudy FEW060 SCT200 BKN280 29 18     53%   30 1005.1 1004.8      
Jun 24 17:54 WSW 15 16.09 Clear   29 18     51%   30 1005.4 1005.1      
Jun 24 16:54 SSW 21 16.09 Mostly Cloudy FEW047 SCT110 BKN170 BKN270 30 19     51%   31 1006.1 1005.7      
Jun 24 15:54 SW 18 16.09 Mostly Cloudy FEW045 FEW120 BKN160 BKN260 29 18     51%   30 1006.8 1006.3      
Jun 24 14:54 SW 17 16.09 Mostly Cloudy FEW050 FEW110 BKN150 BKN250 29 18     53%   30 1007.5 1007.1      
Jun 24 13:54 8 16.09 Mostly Cloudy FEW060 FEW110 BKN160 BKN230 BKN280 27 18     58%   28 1007.8 1007.5     0
Jun 24 12:54 SE 15 16.09 Mostly Clear FEW110 24 16     60%   24 1008.5 1008.3 0    
Jun 24 11:54 SE 15 16.09 Light Rain SCT035 BKN085 BKN110 OVC140 23 14     59%   23 1009.2 1009 0    
Jun 24 10:54 SE 11 16.09 Light Rain FEW055 BKN110 OVC140 22 14     59%   22 1009.8 1009.4 0 0  
Jun 24 09:54 SSE 9 16.09 Cloudy FEW055 FEW110 BKN140 OVC170 22 13     59%   21 1009.8 1009.5      
Jun 24 08:54 ESE 11 16.09 Mostly Cloudy FEW085 BKN140 BKN200 BKN250 19 12     61%     1010.2 1009.9      
Jun 24 07:54 SE 11 16.09 Cloudy SCT095 OVC200 18 11     61%     1010.8 1010.3      
Jun 24 06:54 SE 15 16.09 Mostly Cloudy FEW100 BKN220 17 10     65%     1010.8 1010.5      
Jun 24 05:54 SE 15 16.09 Mostly Clear FEW250 16 9     64%     1011.2 1010.8      
Jun 24 04:54 SE 11 16.09 Clear CLR 15 9     69%     1011.2 1010.9      
Jun 24 03:54 SSE 13 16.09 Mostly Clear FEW250 15 9     69%     1011.5 1011.1      
Jun 24 02:54 SE 17 16.09 Clear CLR 15 9     69%     1011.5 1011.4      
Jun 24 01:54 SE 9 16.09 Clear CLR 15 10     72%     1011.9 1011.5      
Jun 24 00:54 ESE 9 16.09 Clear CLR 17 10     65%     1012.5 1012.3      
Jun 23 23:54 S 8 16.09 Clear CLR 18 9     56%     1012.9 1012.6      
Jun 23 22:54 SW 8 16.09 Clear CLR 19 10     56%     1013.2 1012.8      
Jun 23 21:54 SSW 11 16.09 Mostly Clear FEW250 19 10     55%     1013.6 1013.4      
Jun 23 20:54 SSW 8 16.09 Mostly Clear FEW150 FEW250 22 9     44%   21 1013.9 1013.5      
Jun 23 19:54 WSW 11 16.09 Mostly Clear FEW250 24 9     38%   23 1013.9 1013.6      
Jun 23 18:54 WSW 17 16.09 Mostly Clear FEW250 FEW300 25 10     39%   25 1013.9 1013.6      
Jun 23 17:54 5 16.09 Partly Cloudy FEW250 SCT300 26 8     33%   25 1014.6 1014.2      
Jun 23 16:54 Calm 16.09 Mostly Cloudy FEW060 SCT250 BKN300 26 9     35%   25 1014.9 1014.8      
Jun 23 15:54 SW 17 16.09 Mostly Cloudy FEW060 BKN250 BKN300 25 10     39%   25 1015.9 1015.8      
Jun 23 14:54 WSW 21 16.09 Mostly Cloudy FEW060 FEW200 BKN250 BKN300 24 10     40%   24 1016.3 1015.9      
Jun 23 13:54 SSW 17 16.09 Partly Cloudy FEW060 SCT220 SCT270 26 11     39%   25 1016.3 1015.9      
Jun 23 12:54 WNW 8 16.09 Mostly Cloudy FEW055 SCT220 BKN280 24 9     38%   23 1016.6 1016.4      
Jun 23 11:54 WSW 9 16.09 Mostly Cloudy FEW050 SCT220 BKN280 23 10     43%   23 1017.3 1017.1      
Jun 23 10:54 Calm 16.09 Partly Cloudy FEW220 SCT280 22 11     48%   22 1018.6 1018.4      
Jun 23 09:54 Calm 16.09 Mostly Clear FEW280 21 11     53%     1019.3 1019      
Jun 23 08:54 SSW 9 16.09 Mostly Clear FEW280 18 11     63%     1020 1019.8      
Jun 23 07:54 SW 11 16.09 Mostly Clear FEW280 17 11     67%     1020.7 1020.5      
Jun 23 06:54 SSW 9 16.09 Mostly Clear FEW300 14 10     75%     1020.7 1020.5      
Jun 23 05:54 SSW 9 16.09 Clear   13 9     80%     1020.3 1020.2      
Jun 23 04:54 SSW 9 16.09 Mostly Clear FEW130 FEW300 13 10     83%     1019.7 1019.6      
Jun 23 03:54 SW 9 16.09 Clear CLR 14 11     81%     1019.7 1019.4      
Jun 23 02:54 SW 13 16.09 Clear CLR 15 11     78%     1019.7 1019.5      
Jun 23 01:54 SW 13 16.09 Mostly Clear FEW300 15 11     78%     1019.3 1019      
Jun 23 00:54 SW 8 16.09 Mostly Clear FEW300 15 12     81%     1018.6 1018.3      
Jun 22 23:54 SSW 13 16.09 Partly Cloudy SCT300 16 12     75%     1018.6 1018.4      
Notice The following observation data may not be complete
May 15 10:12 W 17 16.09 Light Rain FEW008 BKN023 OVC070   17      %     1010.2   0    
May 14 09:35 SSW 18 16.09 Cloudy OVC005 15 12     83%     1015.6        
Notice The following observation data may not be complete
May 14 07:54   0.4 Fog VV002          %              
May 14 04:20 SW 15 1.21 Fog/Mist VV002 13 11     87%     1014.6        
May 13 23:54 SW 17 16.09 Mostly Cloudy BKN007 15 11     78%     1014.9 1014.8      
May 13 23:24 SW 15 16.09 Partly Cloudy FEW010 SCT025 15 11     75%     1014.9        
May 13 23:09 SW 13 16.09 Mostly Cloudy FEW013 BKN028 15 11     75%     1014.9        
May 12 14:54 NNE 13 16.09 Mostly Cloudy BKN070 14 5     53%     1018.6 1018.9      
Jun 11 23:54 S 13 16.09 Clear CLR 22 14     61%   22 1015.2 1014.7      
Jun 11 18:54 WSW 26 16.09 Mostly Clear FEW250 25 14     52%   25 1015.9 1015.5      
Jun 11 17:54   16.09 Mostly Clear FEW250 27 14     44%   27 1015.9 1015.5      
Jun 11 16:54   16.09 Mostly Clear FEW250 26 14     49%   26 1016.3 1015.7      
Jun 10 01:54 SSW 5 16.09 Mostly Cloudy SCT050 BKN080 BKN200 18 11     63%     1011.2 1010.9      
Jun 09 23:54 SW 9 16.09 Mostly Cloudy BKN090 BKN140 BKN300 18 11     65%     1011.2 1011      
Jun 09 11:54   16.09 Mostly Cloudy FEW039 FEW120 FEW180 FEW220 BKN270 20 10     53%     1009.8 1009.7      
Jun 09 01:54 S 11 16.09 Mostly Clear FEW250 13 10     80%     1009.5 1009.3      
Jun 08 02:54 SSE 8 16.09 Clear CLR 11 7     74%     1017.6 1017.6      
Jun 06 11:54 NNW 21 16.09 Mostly Cloudy SCT008 SCT016 BKN035 16 13     81%     1008.5 1008.2 0    
Jun 06 04:54 WNW 11 14.48 Light Rain OVC010 13 12     90%     1006.8 1006.8 0 0